Date String (YYYY-MM-DD hh:mm:ss) UTC,Instrument flags,Ambient pressure (hPa),Sample flow (lpm),Bypass flow (lpm),Sample temperature (°C),Ambient temperature (°C),ASC tube jacket temperature (°C),LED temperature (°C),Box temperature (°C),Sample RH (%),Span deviation,Mass concentration (μg/m³),Mass concentration (μg/m³),Mass concentration (μg/m³)
DateTimeUTC,F1_M11,P_M11,Q1_M11,Q2_M11,T1_M11,T2_M11,T3_M11,T4_M11,T5_M11,U1_M11,ZSPAN_M11,X0_M11,X2_M11,X1_M11
2021-11-06 12:00:00,,0828.2,5.00,0.00,27.4,26.5,00.0,36.5,29.2,08.1,0000.0,0002.43,0001.47,0001.05
2021-11-06 12:01:00,,0828.2,5.00,0.00,27.4,26.5,00.0,36.5,29.1,08.1,0000.0,0002.45,0001.46,0001.03
2021-11-06 12:02:00,,0828.3,5.02,0.00,27.4,26.5,00.0,36.5,29.1,08.1,0000.0,0002.43,0001.45,0001.03
2021-11-06 12:03:00,,0828.3,4.99,0.00,27.4,26.5,00.0,36.5,29.1,08.0,0000.0,0002.67,0001.45,0001.02
2021-11-06 12:04:00,,0828.2,5.00,0.00,27.4,26.5,00.0,36.5,29.1,08.0,0000.0,0002.91,0001.40,0001.00
2021-11-06 12:05:00,,0828.2,5.01,0.00,27.4,26.5,00.0,36.5,29.1,08.0,0000.0,0002.94,0001.38,0000.98
2021-11-06 12:06:00,,0828.1,4.99,0.00,27.4,26.5,00.0,36.5,29.1,08.1,0000.0,0002.95,0001.37,0000.96
2021-11-06 12:07:00,,0828.1,5.01,0.00,27.4,26.5,00.0,36.5,29.2,08.1,0000.0,0003.02,0001.39,0000.95
2021-11-06 12:08:00,,0828.2,5.00,0.00,27.4,26.5,00.0,36.5,29.2,08.1,0000.0,0002.96,0001.38,0000.93
2021-11-06 12:09:00,,0828.2,5.01,0.00,27.4,26.5,00.0,36.4,29.1,08.0,0000.0,0002.87,0001.35,0000.91
2021-11-06 12:10:00,,0828.3,4.99,0.00,27.4,26.5,00.0,36.4,29.1,08.1,0000.0,0003.04,0001.38,0000.90
2021-11-06 12:11:00,,0828.2,5.00,0.00,27.4,26.5,00.0,36.4,29.1,07.9,0000.0,0003.11,0001.40,0000.90
2021-11-06 12:12:00,,0828.2,5.02,0.00,27.4,26.5,00.0,36.4,29.1,07.5,0000.0,0003.04,0001.36,0000.90
2021-11-06 12:13:00,,0828.1,4.99,0.00,27.4,26.5,00.0,36.4,29.1,07.3,0000.0,0003.09,0001.34,0000.88
2021-11-06 12:14:00,,0828.1,5.00,0.00,27.4,26.4,00.0,36.4,29.1,07.5,0000.0,0003.09,0001.31,0000.87
2021-11-06 12:15:00,,0828.0,4.99,0.00,27.4,26.4,00.0,36.4,29.1,07.4,0000.0,0003.41,0001.30,0000.87
2021-11-06 12:16:00,,0828.0,5.00,0.00,27.4,26.4,00.0,36.4,29.1,07.3,0000.0,0003.45,0001.27,0000.86
2021-11-06 12:17:00,,0828.1,5.00,0.00,27.4,26.4,00.0,36.4,29.0,07.2,0000.0,0003.60,0001.30,0000.86
2021-11-06 12:18:00,,0828.2,5.00,0.00,27.4,26.4,00.0,36.4,29.1,07.2,0000.0,0003.53,0001.28,0000.86
2021-11-06 12:19:00,,0828.1,5.00,0.00,27.4,26.4,00.0,36.4,29.0,07.2,0000.0,0003.43,0001.24,0000.87
2021-11-06 12:20:00,,0828.1,5.00,0.00,27.3,26.4,00.0,36.4,29.0,07.2,0000.0,0003.47,0001.24,0000.88
2021-11-06 12:21:00,,0828.1,5.00,0.00,27.3,26.4,00.0,36.4,29.0,07.2,0000.0,0003.35,0001.22,0000.88
2021-11-06 12:22:00,,0828.1,5.01,0.00,27.3,26.4,00.0,36.4,29.1,07.2,0000.0,0003.37,0001.22,0000.89
2021-11-06 12:23:00,,0828.1,5.01,0.00,27.3,26.4,00.0,36.4,29.1,07.2,0000.0,0003.36,0001.22,0000.89
2021-11-06 12:24:00,,0828.1,4.99,0.00,27.3,26.4,00.0,36.4,29.1,07.3,0000.0,0003.27,0001.22,0000.91
2021-11-06 12:25:00,,0828.1,5.01,0.00,27.4,26.4,00.0,36.4,29.0,07.2,0000.0,0002.84,0001.20,0000.90
2021-11-06 12:26:00,,0828.2,5.01,0.00,27.3,26.4,00.0,36.4,29.0,07.3,0000.0,0002.10,0001.17,0000.90
2021-11-06 12:27:00,,0828.3,5.00,0.00,27.3,26.4,00.0,36.4,29.0,07.6,0000.0,0001.97,0001.19,0000.91
2021-11-06 12:28:00,,0828.2,4.99,0.00,27.3,26.3,00.0,36.4,29.0,07.4,0000.0,0002.19,0001.17,0000.91
2021-11-06 12:29:00,,0828.3,4.99,0.00,27.3,26.3,00.0,36.4,29.0,07.4,0000.0,0003.07,0001.20,0000.91
2021-11-06 12:30:00,,0828.2,4.99,0.00,27.3,26.3,00.0,36.4,29.0,07.4,0000.0,0003.32,0001.24,0000.93
2021-11-06 12:31:00,,0828.2,5.00,0.00,27.3,26.3,00.0,36.4,29.0,07.3,0000.0,0003.42,0001.28,0000.93
2021-11-06 12:32:00,,0828.2,5.01,0.00,27.3,26.3,00.0,36.4,29.0,07.3,0000.0,0003.65,0001.34,0000.94
2021-11-06 12:33:00,,0828.1,5.00,0.00,27.3,26.3,00.0,36.4,29.0,07.3,0000.0,0004.33,0001.38,0000.95
2021-11-06 12:34:00,,0828.1,5.00,0.00,27.3,26.3,00.0,36.4,29.1,07.3,0000.0,0004.36,0001.40,0000.95
2021-11-06 12:35:00,,0828.1,5.00,0.00,27.3,26.4,00.0,36.4,29.1,07.3,0000.0,0004.38,0001.41,0000.96
2021-11-06 12:36:00,,0828.1,5.00,0.00,27.3,26.4,00.0,36.4,29.1,07.2,0000.0,0004.36,0001.41,0000.97
2021-11-06 12:37:00,,0828.1,5.00,0.00,27.3,26.4,00.0,36.4,29.1,07.2,0000.0,0004.48,0001.47,0000.99
2021-11-06 12:38:00,,0828.1,5.00,0.00,27.3,26.4,00.0,36.4,29.1,07.2,0000.0,0004.49,0001.46,0001.00
2021-11-06 12:39:00,,0828.1,5.01,0.00,27.3,26.4,00.0,36.4,29.1,07.6,0000.0,0004.12,0001.45,0001.00
2021-11-06 12:40:00,,0828.1,5.00,0.00,27.3,26.3,00.0,36.4,29.0,07.6,0000.0,0003.25,0001.43,0001.00
2021-11-06 12:41:00,,0828.1,5.00,0.00,27.3,26.3,00.0,36.4,29.0,07.5,0000.0,0003.11,0001.42,0000.99
2021-11-06 12:42:00,,0828.1,5.01,0.00,27.3,26.3,00.0,36.3,29.0,07.4,0000.0,0003.06,0001.39,0000.99
2021-11-06 12:43:00,,0828.0,4.99,0.00,27.3,26.3,00.0,36.3,29.0,07.4,0000.0,0002.82,0001.31,0000.99
2021-11-06 12:44:00,,0828.0,4.99,0.00,27.3,26.3,00.0,36.3,29.0,07.2,0000.0,0002.04,0001.24,0000.98
2021-11-06 12:45:00,,0828.0,5.00,0.00,27.3,26.3,00.0,36.3,28.9,07.4,0000.0,0001.97,0001.20,0000.96
2021-11-06 12:46:00,,0828.0,5.00,0.00,27.3,26.3,00.0,36.3,29.0,07.2,0000.0,0002.63,0001.20,0000.96
2021-11-06 12:47:00,,0828.0,4.99,0.00,27.3,26.3,00.0,36.3,29.0,06.9,0000.0,0003.34,0001.21,0000.95
2021-11-06 12:48:00,,0828.0,5.00,0.00,27.3,26.3,00.0,36.3,29.0,06.7,0000.0,0003.30,0001.19,0000.93
2021-11-06 12:49:00,,0828.1,5.00,0.00,27.3,26.3,00.0,36.3,29.0,06.7,0000.0,0003.26,0001.18,0000.91
2021-11-06 12:50:00,,0828.1,5.01,0.00,27.3,26.3,00.0,36.3,29.0,06.8,0000.0,0003.18,0001.17,0000.90
2021-11-06 12:51:00,,0828.1,5.00,0.00,27.3,26.3,00.0,36.3,29.0,06.8,0000.0,0003.14,0001.15,0000.90
2021-11-06 12:52:00,,0828.1,5.00,0.00,27.2,26.3,00.0,36.3,28.9,06.7,0000.0,0003.12,0001.14,0000.90
2021-11-06 12:53:00,,0828.1,5.00,0.00,27.2,26.3,00.0,36.3,29.0,06.7,0000.0,0003.02,0001.14,0000.89
2021-11-06 12:54:00,,0828.1,5.00,0.00,27.2,26.3,00.0,36.3,29.0,06.8,0000.0,0002.98,0001.14,0000.88
2021-11-06 12:55:00,,0828.1,4.99,0.00,27.2,26.3,00.0,36.3,28.9,06.8,0000.0,0002.99,0001.14,0000.88
2021-11-06 12:56:00,,0828.1,4.99,0.00,27.2,26.3,00.0,36.3,29.0,06.9,0000.0,0002.96,0001.14,0000.89
2021-11-06 12:57:00,,0828.1,5.00,0.00,27.2,26.3,00.0,36.3,29.0,07.2,0000.0,0002.32,0001.12,0000.87
2021-11-06 12:58:00,,0828.1,5.00,0.00,27.2,26.3,00.0,36.3,29.0,07.7,0000.0,0001.65,0001.12,0000.86
2021-11-06 12:59:00,,0828.1,5.00,0.00,27.2,26.3,00.0,36.3,28.9,07.7,0000.0,0001.69,0001.13,0000.87
